sat.trackr.live / text

‹ back to catalog

STARLINK-5388

NORAD 54844 · 2022-177AA

PAYLOAD ACTIVE UNKNOWN

§ Identity

Operator
Country
US
Launch date
2022-12-28
Launch site
AFETR
Launch vehicle
Mass (kg)
RCS (m²)

Purposes: comms

External: N2YO · Heavens-Above · Gunter

§ Orbital elements

Epoch: 2026-09-19T23:55:14.032416Z

Period
94.27 min
Inclination
43.0039°
Eccentricity
0.0001727
Mean motion
15.27576891 rev/d
Perigee alt
481.9 km
Apogee alt
484.2 km
Semi-major
6,861.2 km
B*
4.0954e-6
RAAN
118.3894°
Arg perigee
261.8888°
Mean anomaly
98.1767°
Rev number
20,664

§ Raw data

STARLINK-53881 54844U 22177AA  26262.99669019 -.00000150  00000+0  40954-5 0  99942 54844  43.0039 118.3894 0001727 261.8888  98.1767 15.27576891206645

JSON: /api/v1/satellites/54844 · /tle

For live sub-satellite position, see the globe view (requires WebGL).

§ Visibility from observer

Set your observer location to see the next 7 days of passes ≥ 10°. The values pass through the URL so the page stays shareable.

No JS? Fill the form by hand. The geolocation button needs JavaScript.